TimeEST,TemperatureF,Dew PointF,Humidity,Sea Level PressureIn,VisibilityMPH,Wind Direction,Wind SpeedMPH,Gust SpeedMPH,PrecipitationIn,Events,Conditions,WindDirDegrees,DateUTC
12:17 AM,21.2,5.0,50,30.20,10.0,North,5.8,-,N/A,,Clear,350,2001-01-26 05:17:00
12:37 AM,19.4,6.8,58,30.20,10.0,Calm,Calm,-,N/A,,Clear,0,2001-01-26 05:37:00
12:57 AM,21.2,5.0,50,30.21,10.0,West,3.5,-,N/A,,Clear,260,2001-01-26 05:57:00
1:17 AM,21.2,5.0,50,30.21,10.0,Calm,Calm,-,N/A,,Clear,0,2001-01-26 06:17:00
1:37 AM,21.2,6.8,54,30.21,10.0,Calm,Calm,-,N/A,,Clear,0,2001-01-26 06:37:00
1:57 AM,19.4,8.6,63,30.22,10.0,Calm,Calm,-,N/A,,Clear,0,2001-01-26 06:57:00
2:17 AM,19.4,8.6,63,30.22,10.0,NW,3.5,-,N/A,,Clear,320,2001-01-26 07:17:00
2:37 AM,19.4,8.6,63,30.22,10.0,West,3.5,-,N/A,,Clear,260,2001-01-26 07:37:00
2:57 AM,19.4,6.8,58,30.22,10.0,Calm,Calm,-,N/A,,Clear,0,2001-01-26 07:57:00
3:17 AM,21.2,5.0,50,30.21,10.0,NNW,3.5,-,N/A,,Clear,330,2001-01-26 08:17:00
3:37 AM,17.6,8.6,68,30.21,10.0,South,3.5,-,N/A,,Clear,190,2001-01-26 08:37:00
3:57 AM,19.4,8.6,63,30.20,10.0,West,3.5,-,N/A,,Clear,270,2001-01-26 08:57:00
4:17 AM,17.6,8.6,68,30.21,10.0,Calm,Calm,-,N/A,,Clear,0,2001-01-26 09:17:00
4:37 AM,17.6,8.6,68,30.20,10.0,Calm,Calm,-,N/A,,Clear,0,2001-01-26 09:37:00
4:57 AM,17.6,8.6,68,30.23,10.0,South,3.5,-,N/A,,Clear,170,2001-01-26 09:57:00
5:17 AM,15.8,8.6,73,30.22,10.0,WSW,3.5,-,N/A,,Clear,250,2001-01-26 10:17:00
5:37 AM,19.4,6.8,58,30.21,10.0,SW,3.5,-,N/A,,Clear,220,2001-01-26 10:37:00
5:57 AM,19.4,6.8,58,30.21,10.0,Calm,Calm,-,N/A,,Clear,0,2001-01-26 10:57:00
6:17 AM,17.6,6.8,63,30.21,10.0,Calm,Calm,-,N/A,,Clear,0,2001-01-26 11:17:00
6:37 AM,15.8,6.8,68,30.21,10.0,Calm,Calm,-,N/A,,Clear,0,2001-01-26 11:37:00
6:57 AM,19.4,6.8,58,30.21,10.0,Calm,Calm,-,N/A,,Clear,0,2001-01-26 11:57:00
7:17 AM,17.6,6.8,63,30.21,10.0,Calm,Calm,-,N/A,,Clear,0,2001-01-26 12:17:00
7:37 AM,17.6,8.6,68,30.21,10.0,SSW,3.5,-,N/A,,Clear,210,2001-01-26 12:37:00
7:57 AM,15.8,8.6,73,30.21,10.0,Calm,Calm,-,N/A,,Clear,0,2001-01-26 12:57:00
8:17 AM,17.6,8.6,68,30.20,10.0,Calm,Calm,-,N/A,,Clear,0,2001-01-26 13:17:00
8:37 AM,19.4,10.4,68,30.20,10.0,Calm,Calm,-,N/A,,Clear,0,2001-01-26 13:37:00
8:57 AM,19.4,10.4,68,30.20,10.0,Calm,Calm,-,N/A,,Clear,0,2001-01-26 13:57:00
9:17 AM,21.2,10.4,63,30.20,10.0,Calm,Calm,-,N/A,,Clear,0,2001-01-26 14:17:00
9:37 AM,28.4,8.6,43,30.20,10.0,Calm,Calm,-,N/A,,Clear,0,2001-01-26 14:37:00
9:57 AM,28.4,8.6,43,30.19,10.0,SE,3.5,-,N/A,,Clear,140,2001-01-26 14:57:00
10:17 AM,32.0,8.6,38,30.19,10.0,South,3.5,-,N/A,,Clear,170,2001-01-26 15:17:00
10:37 AM,33.8,5.0,30,30.18,10.0,South,5.8,-,N/A,,Clear,170,2001-01-26 15:37:00
10:57 AM,35.6,3.2,26,30.17,10.0,SE,4.6,-,N/A,,Clear,140,2001-01-26 15:57:00
11:17 AM,37.4,3.2,24,30.16,10.0,SSE,6.9,-,N/A,,Clear,150,2001-01-26 16:17:00
11:37 AM,37.4,1.4,22,30.15,10.0,SSE,8.1,-,N/A,,Clear,150,2001-01-26 16:37:00
11:57 AM,37.4,1.4,22,30.13,10.0,SE,9.2,-,N/A,,Clear,140,2001-01-26 16:57:00
12:17 PM,37.4,3.2,24,30.11,10.0,SSE,6.9,17.3,N/A,,Clear,150,2001-01-26 17:17:00
12:37 PM,37.4,1.4,22,30.10,10.0,SSE,8.1,16.1,N/A,,Clear,150,2001-01-26 17:37:00
12:57 PM,39.2,-0.4,19,30.08,10.0,SE,6.9,17.3,N/A,,Clear,140,2001-01-26 17:57:00
1:17 PM,39.2,-0.4,19,30.07,10.0,SSE,8.1,16.1,N/A,,Scattered Clouds,150,2001-01-26 18:17:00
1:37 PM,37.4,1.4,22,30.06,10.0,SE,11.5,-,N/A,,Scattered Clouds,130,2001-01-26 18:37:00
1:57 PM,37.4,-0.4,20,30.05,10.0,SE,9.2,-,N/A,,Scattered Clouds,130,2001-01-26 18:57:00
2:17 PM,37.4,1.4,22,30.04,10.0,SE,9.2,-,N/A,,Mostly Cloudy,140,2001-01-26 19:17:00
2:37 PM,37.4,-0.4,20,30.05,10.0,SE,6.9,-,N/A,,Mostly Cloudy,140,2001-01-26 19:37:00
2:57 PM,37.4,3.2,24,30.05,10.0,SSE,6.9,16.1,N/A,,Scattered Clouds,150,2001-01-26 19:57:00
3:17 PM,37.4,5.0,26,30.04,10.0,SSE,6.9,-,N/A,,Mostly Cloudy,150,2001-01-26 20:17:00
3:37 PM,37.4,5.0,26,30.03,10.0,SSE,8.1,-,N/A,,Mostly Cloudy,150,2001-01-26 20:37:00
3:57 PM,35.6,5.0,28,30.03,10.0,SSE,6.9,-,N/A,,Overcast,150,2001-01-26 20:57:00
4:17 PM,35.6,6.8,30,30.03,10.0,SSE,6.9,-,N/A,,Overcast,160,2001-01-26 21:17:00
4:37 PM,35.6,8.6,33,30.02,10.0,SSE,4.6,-,N/A,,Overcast,160,2001-01-26 21:37:00
4:57 PM,35.6,8.6,33,30.01,10.0,South,5.8,-,N/A,,Mostly Cloudy,170,2001-01-26 21:57:00
5:17 PM,35.6,8.6,33,30.00,10.0,South,5.8,-,N/A,,Overcast,170,2001-01-26 22:17:00
5:37 PM,33.8,6.8,32,30.04,10.0,South,5.8,-,N/A,,Overcast,180,2001-01-26 22:37:00
5:57 PM,32.0,6.8,35,30.03,10.0,South,5.8,-,N/A,,Overcast,170,2001-01-26 22:57:00
6:17 PM,33.8,8.6,35,30.02,10.0,SSE,3.5,-,N/A,,Overcast,150,2001-01-26 23:17:00
6:37 PM,32.0,8.6,38,30.00,10.0,SSE,4.6,-,N/A,,Overcast,160,2001-01-26 23:37:00
6:57 PM,32.0,10.4,41,30.02,10.0,SSE,5.8,-,N/A,,Overcast,160,2001-01-26 23:57:00
7:17 PM,32.0,10.4,41,30.00,10.0,SSE,5.8,-,N/A,,Overcast,150,2001-01-27 00:17:00
7:37 PM,32.0,12.2,44,30.01,10.0,SSE,3.5,-,N/A,,Overcast,150,2001-01-27 00:37:00
7:57 PM,32.0,14.0,48,29.99,10.0,SSE,4.6,-,N/A,,Overcast,150,2001-01-27 00:57:00
8:17 PM,32.0,14.0,48,30.00,10.0,SSE,4.6,-,N/A,,Overcast,160,2001-01-27 01:17:00
8:37 PM,32.0,15.8,51,29.98,10.0,SSE,4.6,-,N/A,,Overcast,160,2001-01-27 01:37:00
8:57 PM,32.0,14.0,48,29.97,10.0,SSE,3.5,-,N/A,,Overcast,160,2001-01-27 01:57:00
9:17 PM,32.0,14.0,48,29.96,10.0,SSE,4.6,-,N/A,,Overcast,160,2001-01-27 02:17:00
9:37 PM,32.0,14.0,48,29.96,10.0,Calm,Calm,-,N/A,,Overcast,0,2001-01-27 02:37:00
9:57 PM,32.0,14.0,48,29.96,10.0,Calm,Calm,-,N/A,,Overcast,0,2001-01-27 02:57:00
10:17 PM,32.0,14.0,48,29.95,10.0,Calm,Calm,-,N/A,,Overcast,0,2001-01-27 03:17:00
10:37 PM,37.4,28.4,70,29.94,10.0,West,19.6,34.5,N/A,,Overcast,280,2001-01-27 03:37:00
10:57 PM,37.4,30.2,75,29.92,10.0,West,34.5,46.0,N/A,,Overcast,280,2001-01-27 03:57:00
11:17 PM,37.4,30.2,75,29.94,10.0,West,21.9,44.9,N/A,,Overcast,280,2001-01-27 04:17:00
11:37 PM,35.6,30.2,81,29.94,10.0,West,27.6,42.6,N/A,,Overcast,280,2001-01-27 04:37:00
11:57 PM,35.6,28.4,75,29.94,10.0,West,19.6,34.5,N/A,,Overcast,270,2001-01-27 04:57:00